RH
2 2 1 2 2 2 2 2 2 2 2 2 2 2 2 2 2 2 2 2 2 2 3 2 3 3 3 3 3 3 3 3 3 3 3 4 4 4 4 5 5 5 5 5 5 5 6 6 6 6 6 6 6 6 7 7 7 7 7 7 7 8 8 8 8 7 7 8 8 9 8 7 7 6 6 6 7 7 7 7 6 6 6 6 6
2 2 1 2 2 2 2 2 2 2 2 2 2 2 2 2 2 2 2 2 2 2 2 2 2 2 2 3 3 3 3 3 3 3 3 3 3 3 3 4 4 4 4 4 4 4 5 5 6 6 6 6 6 6 6 7 7 7 7 7 7 7 8 8 8 8 7 8 8 8 8 7 6 6 6 6 6 6 6 7 6 6 6 6 6
2 2 2 2 2 2 2 2 2 2 2 2 2 2 2 2 2 2 2 2 2 2 2 2 2 2 2 3 2 3 3 2 3 2 3 3 2 3 3 3 3 3 3 4 4 4 4 4 5 5 5 6 6 6 6 6 6 6 6 6 6 7 7 8 8 8 8 7 8 8 8 7 6 6 6 5 6 6 6 6 6 6 6 6 6
2 2 2 2 2 2 2 2 2 2 2 2 2 2 2 2 2 2 2 2 2 2 2 2 2 2 2 2 2 2 2 2 2 2 2 2 2 2 2 2 3 3 3 3 3 3 4 4 4 5 5 5 5 6 6 7 6 6 6 6 6 6 6 7 7 7 8 7 7 8 7 7 6 6 6 5 6 6 6 6 6 6 7 6 6
2 2 2 2 2 2 2 2 2 2 2 2 2 2 2 2 2 2 2 2 2 2 2 2 2 2 2 2 2 2 2 2 2 2 2 2 2 2 2 2 2 2 2 2 3 3 3 4 4 4 4 4 5 5 6 6 6 6 6 6 6 6 5 6 6 6 7 7 7 7 7 7 6 6 6 6 6 6 6 7 6 6 6 6 6
2 2 2 2 2 2 2 2 2 2 2 2 2 2 2 2 2 2 2 2 3 2 2 2 2 2 2 2 2 2 2 2 2 2 2 2 2 2 2 2 2 2 2 2 2 3 2 3 3 3 3 4 4 5 5 5 5 5 5 5 5 5 5 5 5 5 6 6 6 6 6 7 7 7 7 7 7 7 7 7 7 6 6 6 6
2 3 3 3 3 3 2 2 2 2 2 2 2 2 2 2 2 2 2 2 3 3 3 3 2 3 2 2 2 2 2 2 2 2 2 2 2 2 2 2 2 2 2 2 2 2 2 3 3 2 3 3 3 4 4 4 4 3 4 4 4 4 4 4 4 4 5 6 5 6 6 6 6 7 7 7 8 7 7 7 6 6 6 6 6
3 3 3 3 3 3 3 3 3 2 2 2 2 2 2 2 2 2 2 2 2 2 2 3 3 3 3 2 2 2 2 2 2 2 2 2 2 2 2 2 2 2 2 2 2 2 2 2 2 2 2 2 3 3 3 4 3 3 3 3 3 3 3 3 4 4 4 4 4 5 5 5 6 6 7 8 8 7 7 6 6 6 6 6 6
3 3 3 3 3 3 3 3 3 3 3 3 3 3 2 3 2 2 3 2 3 3 3 3 3 3 3 3 3 3 2 3 2 2 2 2 2 2 2 2 2 2 2 2 2 2 2 2 2 2 2 2 3 3 3 3 3 3 3 3 3 3 3 3 3 4 4 4 4 4 4 5 5 6 6 7 7 6 6 6 6 6 5 5 5
3 3 3 3 4 3 3 4 3 3 4 4 4 3 3 3 3 3 3 3 3 3 3 3 3 3 3 3 3 3 3 3 3 2 2 3 2 2 3 2 2 2 2 2 2 2 2 2 2 2 2 2 2 3 3 3 3 3 3 3 3 3 3 3 3 3 3 3 4 4 4 5 5 5 5 5 6 6 6 6 6 5 5 5 4
3 3 3 3 4 4 4 4 4 4 4 4 4 4 4 4 4 3 4 3 3 3 3 3 3 3 3 3 3 3 3 3 3 3 3 3 3 3 3 3 3 3 3 2 2 2 2 2 2 2 2 2 2 2 3 3 3 3 2 3 3 3 3 3 3 3 3 3 3 3 4 4 4 4 5 4 5 5 5 5 5 5 4 4 4
3 3 4 3 3 4 4 4 4 4 4 4 4 4 4 4 4 4 4 4 3 3 3 4 4 3 3 3 3 3 4 3 3 3 3 3 3 3 3 3 3 3 3 3 3 2 3 2 2 2 2 2 2 2 3 3 2 2 2 3 3 3 3 3 3 3 3 3 3 3 3 3 3 3 4 4 4 4 4 4 4 4 4 3 3
3 3 3 3 3 4 3 4 4 3 3 3 3 3 4 4 4 4 4 4 4 4 4 4 4 4 3 3 3 3 3 3 3 3 3 3 3 3 4 4 4 3 3 3 3 3 3 3 3 2 2 2 3 2 2 3 2 2 3 3 3 3 3 3 3 3 3 3 3 3 3 3 3 3 3 3 4 3 3 3 3 3 3 3 3
3 3 3 4 4 4 4 3 4 3 3 3 3 3 4 4 4 4 4 4 4 4 4 3 3 3 3 3 3 3 3 3 3 3 3 3 3 3 4 4 4 4 4 3 4 3 3 3 3 3 3 3 3 3 3 3 3 3 3 3 3 3 3 3 3 3 4 3 3 3 3 3 3 4 4 4 3 3 3 3 3 3 3 3 3
3 3 3 3 3 4 4 3 3 3 3 3 3 3 3 3 3 3 4 4 3 3 3 3 3 3 3 3 3 3 3 3 3 3 3 3 3 3 4 4 4 4 3 4 4 4 4 3 3 3 3 3 3 3 3 3 3 3 3 3 3 3 3 3 3 3 3 3 3 4 4 4 4 4 4 4 3 3 3 3 3 4 3 3 3
3 3 3 3 3 3 3 3 3 3 3 3 3 3 3 3 3 3 3 3 3 3 3 3 3 3 3 3 3 3 3 3 3 3 3 3 4 4 4 4 4 3 3 3 4 3 4 4 3 3 3 3 4 3 3 3 3 3 3 3 3 3 3 4 4 4 4 4 4 4 4 4 4 4 4 4 4 4 4 4 4 4 3 3 3
3 3 3 3 3 3 3 3 3 3 3 3 3 3 3 3 3 3 3 3 3 3 3 3 3 3 3 3 3 3 3 2 2 3 3 3 3 3 4 4 4 4 3 3 3 3 4 4 4 4 4 4 4 3 3 3 3 3 3 3 3 3 4 4 4 4 4 4 4 4 4 5 4 4 4 4 4 4 4 4 4 3 3 4 4
3 3 3 3 3 3 3 3 3 3 3 3 3 3 3 3 3 3 3 3 3 3 3 3 3 3 3 2 3 2 2 2 2 2 3 3 3 3 3 4 4 3 3 3 3 3 3 4 4 4 4 4 4 3 3 3 3 3 3 3 3 4 4 4 4 4 4 4 4 5 5 4 4 4 4 4 4 4 4 4 4 4 4 4 4
3 3 3 3 3 3 3 3 3 3 3 3 3 3 3 3 3 3 3 3 3 3 3 3 3 3 3 2 2 2 2 2 2 2 2 2 2 3 3 3 3 3 3 3 3 3 3 4 4 4 4 4 4 4 4 3 3 3 3 4 4 4 4 4 4 4 5 5 5 5 5 4 4 4 4 4 4 4 4 4 3 4 4 3 3
3 3 3 3 3 3 3 3 3 3 3 3 3 3 3 3 3 3 3 3 3 3 3 3 2 2 2 2 2 2 2 2 2 2 2 2 2 3 3 3 3 3 3 3 3 3 4 4 4 4 4 3 4 4 4 4 4 3 4 4 4 4 4 4 4 5 5 5 5 5 5 4 4 4 4 4 4 4 3 4 4 4 4 3 3
3 2 2 2 2 3 3 3 3 3 3 3 3 3 3 3 3 3 3 3 3 3 3 3 2 2 2 2 2 2 2 2 2 2 2 2 2 2 2 2 3 3 3 3 3 3 4 4 4 4 4 4 4 4 4 4 3 3 4 4 3 3 3 4 4 5 4 5 5 4 5 4 4 4 4 3 3 3 3 4 4 4 3 3 3
2 2 2 3 3 3 3 3 3 3 3 3 3 3 3 3 3 3 3 3 3 3 3 3 2 2 2 2 2 2 2 2 2 2 2 2 2 2 2 2 2 3 3 3 3 3 3 4 4 4 4 4 4 4 4 4 3 3 3 3 3 4 4 4 4 4 4 4 4 4 4 4 4 4 4 3 3 4 4 4 4 3 3 3 3
2 2 2 3 3 3 3 3 2 2 3 3 3 3 3 3 3 3 3 3 3 3 3 2 2 2 2 2 2 2 2 2 2 2 2 2 2 2 2 2 2 3 3 3 3 3 3 4 4 4 4 4 4 4 4 3 3 3 3 3 4 4 4 4 4 4 4 4 4 4 4 4 4 3 3 3 4 4 4 3 3 3 3 3 3
2 2 2 3 3 3 3 3 3 3 3 3 3 3 3 3 3 3 3 3 3 3 2 2 2 2 2 2 2 2 2 2 2 2 2 2 3 2 2 3 3 3 3 3 3 3 3 4 4 3 3 3 4 4 3 3 3 3 3 4 4 4 4 4 4 4 4 4 4 4 4 3 3 3 3 3 4 3 3 3 3 3 3 3 4
2 2 3 3 3 3 3 2 3 3 3 3 3 3 3 3 3 3 3 2 2 2 2 2 2 2 2 2 2 2 2 2 2 2 2 2 3 3 3 3 3 3 3 3 3 3 3 3 3 3 3 3 3 3 3 3 3 3 4 3 3 4 4 4 4 4 4 4 4 4 4 3 3 4 3 3 4 3 3 3 3 4 4 4 4
2 2 2 2 2 2 3 3 3 3 3 3 3 3 3 3 3 3 2 2 2 2 2 2 2 2 2 2 2 2 2 2 2 2 2 2 2 3 3 3 3 3 3 3 3 3 3 3 3 3 3 3 3 3 3 3 3 3 4 4 4 4 4 3 4 3 3 4 3 3 4 4 3 4 4 4 4 4 4 4 4 4 4 4 4
2 2 2 2 2 2 3 3 3 3 3 3 3 3 3 3 3 3 2 2 2 2 2 2 2 2 2 2 2 2 2 2 2 2 2 3 2 2 3 2 3 3 3 3 3 3 3 3 3 3 3 3 3 3 3 3 4 4 4 4 3 3 3 3 3 3 3 4 4 4 4 4 4 4 4 4 4 4 4 4 5 5 5 5 5
2 2 2 2 2 3 3 3 3 3 3 3 3 3 3 3 3 3 2 2 2 2 2 2 2 2 2 2 2 2 2 2 2 2 2 3 2 3 3 2 3 3 3 3 3 3 3 3 3 3 3 3 3 4 3 4 4 3 4 3 3 3 3 3 3 4 4 4 4 4 4 4 4 4 4 4 5 5 5 5 5 6 6 6 6
2 2 2 2 3 3 3 3 4 3 3 3 3 3 3 3 3 3 3 2 2 2 2 2 2 2 2 2 2 2 2 2 2 2 2 2 2 2 3 2 3 3 3 3 3 3 3 3 3 3 3 3 3 3 3 3 3 3 3 3 3 3 3 4 4 4 4 4 4 4 4 4 4 5 5 5 6 6 6 6 6 7 7 7 7
2 2 2 3 3 3 3 3 3 3 3 3 3 3 3 3 3 3 2 2 2 2 2 2 2 2 2 2 2 2 2 2 3 3 2 2 3 2 3 3 3 3 3 3 3 3 3 3 3 3 3 3 3 3 3 3 3 3 4 4 4 4 4 4 4 4 4 4 4 4 5 5 5 6 6 6 7 7 7 7 7 8 8 7 7
2 2 3 3 3 3 4 3 3 3 3 3 3 3 3 3 3 3 3 2 3 3 2 2 3 2 2 2 2 2 3 3 3 3 3 3 3 2 3 3 2 3 3 3 3 3 3 3 3 3 3 3 3 3 3 4 3 4 4 4 4 4 4 4 4 4 5 5 5 5 6 6 7 7 7 7 7 7 8 8 8 8 8 8 7
3 3 3 3 4 4 4 3 3 3 3 3 3 3 3 3 3 3 3 3 3 3 3 2 3 2 2 3 3 3 3 3 3 3 3 3 3 3 3 3 3 3 3 3 3 3 3 3 3 3 3 3 4 4 4 4 4 4 4 4 4 4 5 5 5 5 5 6 6 7 7 7 8 7 7 8 8 8 8 8 8 8 8 7 7
3 3 3 4 4 4 4 3 3 3 3 3 3 3 3 3 3 3 3 3 3 3 3 3 3 3 3 3 3 3 3 3 3 3 3 3 3 3 3 3 3 3 3 3 3 3 3 3 3 3 4 4 4 4 4 4 4 5 5 5 5 5 5 6 6 6 7 7 7 8 7 8 8 8 8 9 9 9 9 8 8 7 7 6 6
3 3 3 4 4 4 3 3 3 3 3 3 3 3 3 3 3 3 3 3 3 3 3 3 3 3 3 3 3 3 3 3 3 3 4 3 3 3 3 3 4 3 3 4 4 4 4 4 4 4 4 4 5 5 5 5 5 5 6 6 6 6 7 7 7 7 8 7 8 8 8 8 9 9 9 9 9 8 8 7 7 6 6 6 6
3 4 4 4 4 4 3 3 3 3 3 3 3 3 3 3 4 4 3 3 3 3 3 3 3 3 3 3 4 4 4 4 4 4 4 4 4 4 4 4 4 4 4 4 4 4 4 4 5 5 5 5 5 5 6 6 6 7 7 7 7 7 7 8 8 8 8 8 9 9 9 9 9 9 9 8 8 7 7 6 6 6 6 6 7
4 4 4 4 4 3 3 3 3 3 3 3 4 3 3 4 4 4 4 4 4 4 4 3 3 3 3 4 4 4 4 4 4 4 4 4 4 4 4 5 5 5 5 5 5 5 5 5 6 6 6 6 7 7 7 7 7 8 8 8 8 8 8 8 9 9 9 10 10 10 10 9 9 8 8 7 7 6 6 7 7 7 8 8 9
4 4 4 4 4 4 3 3 4 4 4 4 4 4 4 4 4 4 4 4 4 4 4 4 4 4 4 4 4 4 4 4 5 5 5 5 5 5 5 6 5 5 6 6 6 6 6 6 6 7 7 7 8 8 8 8 8 9 9 9 9 9 9 10 10 10 10 10 9 9 9 8 8 7 7 7 8 8 9 9 10 10 10 10 9
4 4 5 4 4 4 4 4 4 4 4 4 4 4 4 4 4 4 4 4 4 4 4 4 4 4 4 4 4 4 5 5 5 5 5 5 6 6 6 6 6 6 7 7 7 7 7 7 7 8 8 8 8 8 8 9 9 10 10 10 10 10 10 10 10 9 9 9 9 8 8 8 9 9 10 10 11 12 12 12 12 11 10 9 9
5 5 5 5 4 4 4 4 4 4 4 4 4 4 4 4 4 4 4 4 4 4 4 4 5 5 5 5 5 5 5 6 6 6 6 6 6 6 7 7 7 7 7 7 7 7 7 8 8 8 8 9 9 9 9 10 10 10 10 10 10 9 9 9 9 9 10 10 10 11 11 12 12 13 13 14 14 13 13 12 11 10 10 9 9
5 5 5 5 4 4 4 4 4 4 4 5 5 5 5 5 5 5 5 5 4 5 5 4 5 5 5 5 5 5 6 6 6 6 7 7 7 8 7 7 8 8 8 8 8 8 8 9 9 9 9 9 9 10 10 9 9 9 9 9 9 10 10 11 11 12 13 14 14 15 16 16 16 16 16 15 14 13 13 12 11 10 10 9 9
5 5 5 5 5 5 5 5 5 5 5 5 5 5 5 5 5 5 5 5 5 5 5 5 5 5 5 6 6 6 6 6 7 7 7 8 8 9 9 9 9 9 9 10 10 10 10 9 9 9 10 10 9 9 9 9 9 10 10 11 12 14 15 16 17 18 19 19 20 20 20 19 19 17 16 15 14 13 12 11 11 10 10 9 9
6 5 5 6 5 5 5 5 5 5 5 5 5 5 5 5 6 5 5 6 5 5 5 5 5 6 6 6 6 7 7 7 8 8 8 9 9 10 10 10 10 10 10 10 10 10 9 9 10 10 9 9 10 10 10 11 12 14 16 18 19 21 22 23 24 24 24 24 24 23 21 20 18 17 16 15 14 13 12 12 11 11 10 9 9
6 6 6 6 6 5 5 5 5 5 6 5 5 5 5 6 6 6 6 6 6 6 6 6 6 6 7 7 7 7 8 8 8 9 9 9 9 9 9 10 9 10 10 10 10 10 11 11 11 11 12 12 13 14 16 18 20 22 24 26 27 28 29 29 28 28 27 25 23 22 20 19 18 17 16 15 14 14 13 12 11 10 10 9 8
6 6 6 6 7 6 6 6 6 6 6 6 6 6 6 6 6 6 6 6 6 7 7 7 7 7 7 7 8 8 8 9 9 9 9 10 10 10 10 11 11 12 12 13 13 13 14 15 16 17 18 20 22 24 26 28 30 31 32 32 32 32 31 30 29 27 25 24 23 21 20 19 18 17 16 15 14 14 13 12 11 9 8 8 7
6 6 6 7 7 7 6 6 7 7 7 7 6 6 6 7 7 7 7 7 7 8 8 8 8 9 9 9 9 10 10 11 11 12 12 13 14 14 15 16 17 19 20 21 21 22 23 25 26 27 29 30 31 33 34 34 34 35 34 34 33 32 30 29 27 25 24 23 22 21 20 19 17 16 15 14 13 12 11 10 9 8 7 7 6
6 6 6 7 7 7 7 7 7 7 7 7 7 7 7 7 8 8 8 8 9 9 9 10 10 11 11 12 13 14 15 16 18 19 20 21 22 23 24 25 27 28 29 30 31 32 33 33 33 34 35 35 36 36 36 36 35 35 34 32 31 29 28 26 25 24 23 22 20 19 18 17 15 15 14 13 12 11 10 9 8 7 7 7 6
6 6 7 7 8 8 7 7 8 8 8 8 8 8 8 8 9 9 10 11 11 12 12 13 14 16 17 18 21 23 26 28 29 30 32 33 33 34 34 34 35 35 36 36 36 36 35 35 35 35 35 36 35 35 34 34 33 32 30 29 28 26 25 24 23 21 20 19 18 17 16 15 15 14 13 12 11 10 9 8 8 7 7 6 6
7 7 7 8 8 8 8 8 8 8 8 9 9 8 9 10 11 12 14 16 17 18 20 22 25 27 28 30 33 36 38 40 40 40 40 40 40 39 39 39 38 38 37 36 35 35 34 34 34 34 34 34 33 33 32 31 30 29 28 26 25 24 22 21 20 19 17 16 16 15 14 14 14 13 12 11 10 9 9 8 8 7 7 7 6
7 7 8 8 9 9 8 8 9 9 9 9 10 10 11 12 14 17 20 23 25 27 31 35 39 41 42 43 45 47 47 47 46 45 43 42 41 40 39 39 37 36 35 34 33 32 32 32 33 33 34 34 34 33 32 31 29 27 26 24 22 21 20 18 17 16 15 14 14 14 14 13 13 12 11 10 10 9 9 8 8 7 7 6 5
8 8 9 9 10 10 9 9 10 10 10 11 12 13 14 16 20 24 28 30 32 37 41 46 49 51 51 52 52 52 51 49 47 45 43 41 39 38 36 35 34 33 33 32 32 32 32 33 34 34 34 33 32 31 29 27 26 24 23 22 20 19 18 17 16 15 14 14 14 14 14 13 12 11 11 10 9 9 8 8 7 7 6 6 5
8 9 9 10 10 10 10 11 11 11 12 13 14 16 18 22 27 31 34 39 44 49 53 55 57 58 58 57 56 55 53 50 47 44 41 38 36 35 34 34 33 33 33 33 33 33 33 33 33 32 31 29 28 27 25 24 23 22 21 20 19 18 17 16 16 15 15 14 14 14 13 12 11 11 10 9 9 9 8 7 7 6 5 5 5
Wind_Speed
51 52 52 53 53 54 54 55 56 57 58 60 61 63 64 64 64 65 66 68 70 72 74 76 78 79 81 82 83 85 86 88 89 92 94 95 97 100 102 105 107 108 108 108 108 107 108 108 109 110 110 110 111 112 112 114 115 116 116 116 115 114 115 116 116 116 115 114 115 116 118 117 115 112 111 109 109 109 109 108 107 105 105 104 104
50 50 51 51 51 52 52 53 53 54 55 57 58 60 61 62 63 64 65 66 67 68 70 72 73 75 77 78 80 81 83 84 86 87 89 91 92 95 97 99 102 103 104 104 104 104 104 106 107 108 109 109 109 109 110 112 114 115 116 115 114 113 114 116 117 117 116 115 116 117 118 119 116 113 111 109 108 107 107 107 106 105 104 103 103
49 50 50 50 50 50 51 51 52 53 53 54 55 56 58 59 61 62 63 64 65 66 67 68 70 71 73 74 76 78 79 81 82 84 85 86 88 89 91 93 95 96 97 97 97 97 98 101 102 103 105 106 106 106 107 109 111 113 113 113 112 112 113 115 116 117 117 117 116 117 119 119 117 113 111 109 108 107 106 106 105 105 104 103 103
48 49 49 49 49 50 50 50 51 51 52 52 53 53 55 56 58 59 60 62 62 63 64 66 67 68 69 71 73 74 76 77 78 80 81 82 83 85 86 88 89 90 90 90 91 91 92 94 96 97 99 100 100 101 102 105 107 109 110 109 109 109 111 113 114 116 117 117 117 117 118 118 116 113 111 109 108 108 107 106 106 105 105 104 104
46 47 48 48 48 49 49 49 50 50 51 51 51 51 52 53 55 56 58 59 60 61 62 63 64 65 66 67 69 70 72 73 74 75 76 78 79 80 81 83 84 85 86 85 86 87 89 90 91 92 93 94 94 95 97 100 103 104 105 104 105 105 107 109 110 111 113 115 116 116 117 116 115 113 112 111 110 109 108 107 106 105 105 105 105
43 44 45 45 46 47 47 47 48 48 49 50 50 50 51 51 52 53 55 56 58 59 59 60 61 62 63 64 65 66 67 68 69 70 71 73 75 76 76 77 78 80 81 81 82 84 86 87 88 89 90 89 90 91 94 97 100 101 101 101 101 101 102 103 104 104 106 110 113 113 113 113 113 112 111 111 110 109 108 107 106 105 104 104 105
39 40 41 42 43 43 44 44 45 45 46 46 47 48 49 49 50 51 52 53 55 56 57 58 58 59 60 61 62 63 63 63 65 66 68 69 70 70 70 71 72 73 74 75 77 80 82 83 85 87 87 86 87 90 93 96 98 99 98 97 97 97 97 97 96 96 99 103 106 107 107 107 108 108 108 108 108 107 106 105 104 103 103 103 103
36 37 38 39 40 41 41 42 42 42 43 43 44 45 45 46 46 47 48 49 50 52 53 54 55 56 57 58 58 59 59 61 62 63 64 64 64 64 65 66 67 68 70 71 72 75 77 78 80 82 83 83 85 88 90 93 95 96 94 93 93 93 92 91 90 90 93 95 97 97 97 98 98 100 103 104 104 103 102 101 100 99 100 101 101
36 36 37 37 38 39 39 40 41 41 41 41 42 42 42 43 43 43 44 44 45 47 48 50 51 52 53 54 55 56 57 59 61 61 61 60 60 60 62 63 64 66 67 68 69 71 72 73 74 76 77 78 81 84 87 90 91 91 90 89 88 87 86 86 85 86 87 88 87 87 87 87 89 93 97 99 99 99 99 97 96 96 98 99 99
37 36 36 36 36 37 38 39 40 40 40 41 41 41 40 41 42 41 41 41 43 45 46 46 47 48 50 51 52 53 54 56 59 59 58 57 57 58 59 61 62 64 65 66 68 69 69 69 71 72 72 73 75 79 82 85 87 86 85 84 82 82 82 81 81 81 81 81 80 80 80 81 85 88 91 93 94 94 93 93 93 94 96 96 96
36 36 36 36 36 36 37 37 38 38 39 39 39 39 39 40 41 40 40 41 43 43 43 43 43 45 47 47 48 48 50 53 55 55 54 53 54 55 57 59 61 62 63 64 66 67 67 67 68 69 69 69 71 75 78 81 82 82 81 79 79 78 78 78 77 77 77 77 77 76 76 78 81 83 85 87 87 87 88 89 90 92 93 94 94
33 34 35 35 35 35 36 37 37 37 37 37 37 38 38 39 39 39 39 41 42 41 40 40 42 44 44 44 45 45 47 49 51 50 50 50 51 52 55 57 58 60 61 62 64 65 65 65 66 66 66 66 68 71 74 77 78 77 77 77 76 76 75 74 74 74 75 76 75 73 73 75 77 78 79 81 82 83 85 86 88 89 90 91 91
31 32 32 33 33 34 35 36 37 37 36 36 36 36 36 37 38 38 38 38 39 39 39 39 40 41 42 43 44 44 45 46 46 45 45 46 47 49 51 53 55 57 59 59 61 62 62 63 64 64 63 64 66 68 70 71 73 73 73 74 74 73 72 71 71 73 74 75 73 71 71 72 73 74 74 76 79 82 83 83 84 84 86 87 88
30 30 31 31 32 33 34 35 36 36 35 35 35 35 35 36 37 37 36 36 37 37 38 37 38 39 39 40 42 42 43 43 42 41 42 44 45 45 47 49 53 55 56 56 58 59 60 61 61 61 62 62 63 65 66 67 69 70 71 71 71 70 69 68 69 71 73 72 71 69 68 69 70 70 71 75 78 79 79 79 79 80 82 83 84
30 30 30 30 31 32 33 34 34 33 33 33 34 34 34 35 35 35 35 35 36 36 36 36 36 36 36 37 37 38 39 39 38 38 40 42 43 43 45 47 51 54 54 54 56 58 59 59 58 58 59 59 60 62 64 65 66 67 67 68 68 67 66 67 68 69 69 69 67 65 65 66 66 68 71 74 75 75 75 75 75 77 79 79 79
30 30 30 29 30 30 30 31 31 31 32 32 32 32 32 32 33 33 33 34 34 34 34 34 34 34 34 34 35 35 36 35 34 35 38 39 40 42 44 47 51 53 52 53 54 55 56 57 56 56 57 57 59 61 63 63 63 63 64 64 64 62 63 65 65 66 66 65 64 62 62 63 65 67 70 71 71 71 72 72 74 76 75 73 74
28 29 29 28 28 28 28 28 29 29 30 31 30 30 29 30 30 31 32 32 32 32 32 32 32 32 32 32 32 33 33 32 32 34 36 37 38 40 43 47 51 52 51 51 52 52 53 55 54 55 56 57 58 60 60 60 60 60 60 61 60 60 62 63 63 63 63 62 60 59 60 62 65 66 66 67 68 69 71 72 72 71 69 70 72
26 27 27 26 26 26 26 27 28 28 28 28 28 28 28 29 29 30 30 30 30 30 31 31 31 30 31 30 31 31 31 30 31 34 35 36 37 39 42 46 50 50 49 49 50 49 49 51 51 53 56 57 57 58 58 57 57 57 58 58 59 59 61 62 62 61 59 58 56 57 59 61 63 63 63 65 66 68 69 69 68 67 67 69 71
25 25 25 25 26 26 26 27 27 26 26 26 27 27 28 28 28 28 28 28 28 28 29 29 29 29 29 29 29 29 29 29 31 32 33 34 36 38 42 46 48 48 47 48 47 45 45 47 49 52 54 55 55 56 56 56 56 56 57 57 58 59 60 60 59 56 54 54 54 56 57 59 59 61 62 63 65 67 67 66 66 66 67 69 69
25 25 24 25 26 26 26 26 25 25 25 25 26 26 26 26 26 26 26 25 26 26 27 27 27 27 27 27 27 27 27 27 28 30 31 33 35 38 41 44 44 44 45 45 44 43 43 46 48 51 52 51 51 53 54 55 55 55 55 56 58 58 58 56 53 51 52 52 53 55 55 56 58 60 61 62 63 65 65 64 65 66 66 67 67
25 25 25 25 25 24 24 24 24 24 24 24 24 24 23 23 23 23 23 23 24 25 25 25 26 26 26 26 25 25 25 25 26 27 28 30 33 36 38 39 39 41 42 43 42 42 43 44 46 48 48 47 48 50 52 54 53 52 53 54 55 54 52 49 49 49 50 51 52 53 54 55 57 59 61 62 62 62 62 63 64 65 65 65 65
24 25 24 24 23 22 22 22 22 22 22 22 22 22 22 21 21 22 23 23 24 24 24 25 25 25 24 24 24 23 23 24 24 25 26 28 30 32 33 33 35 37 39 41 41 41 42 43 44 45 45 45 46 48 51 52 51 50 51 51 50 48 47 47 47 47 48 49 51 52 53 55 57 59 61 60 58 58 60 62 64 64 63 63 62
24 23 23 22 21 21 21 21 21 21 20 20 20 20 20 20 21 22 23 23 23 23 23 23 24 23 23 23 23 22 22 22 23 23 24 25 27 28 28 30 31 34 36 38 39 40 41 42 44 45 45 45 46 48 50 50 49 48 48 47 46 46 46 46 45 46 47 50 51 52 54 56 57 58 57 56 56 58 60 61 61 61 60 60 60
23 22 21 21 20 20 20 20 20 20 20 19 19 18 19 19 20 21 21 21 21 21 20 21 21 21 20 20 20 20 20 21 21 22 23 23 24 25 25 27 29 31 33 36 38 39 41 43 44 45 45 45 46 47 49 48 47 45 44 44 44 44 43 43 44 46 48 49 50 52 54 55 55 54 54 55 56 57 57 57 58 57 57 58 57
21 21 20 20 20 20 20 20 20 20 19 18 17 17 17 17 18 18 18 18 18 17 17 18 18 18 18 18 18 19 19 19 20 21 21 22 22 23 23 24 26 29 31 34 36 38 40 42 43 43 43 44 45 45 46 44 42 41 41 41 40 40 41 43 45 46 47 48 50 51 52 52 52 52 53 53 54 54 54 55 55 55 55 56 56
20 20 19 19 19 19 19 19 19 19 18 17 15 15 15 15 15 15 15 15 14 15 15 15 15 16 16 16 17 17 17 18 18 19 19 20 21 21 22 23 24 26 29 31 32 34 36 37 37 38 39 40 40 40 39 38 36 36 36 37 38 41 43 45 44 44 45 46 48 49 49 49 49 49 50 51 51 52 52 52 52 53 53 54 54
20 19 19 19 19 18 18 18 17 17 16 15 14 14 13 14 14 14 13 13 12 12 12 12 12 13 13 14 14 15 15 15 16 16 17 17 18 19 20 21 23 25 26 28 29 30 30 30 30 32 32 33 33 32 32 31 32 33 35 38 40 42 42 41 41 42 43 43 44 45 46 46 46 47 48 49 49 49 49 49 50 51 51 51 51
20 19 19 19 18 18 17 16 15 15 14 14 14 13 13 13 13 13 12 12 11 10 10 10 10 10 11 11 11 12 12 13 13 14 14 14 15 16 17 19 21 22 24 25 25 26 26 25 26 27 27 28 28 29 29 31 33 35 36 38 38 38 37 38 38 39 40 40 41 42 43 44 45 45 46 46 46 46 46 47 48 49 49 49 49
20 19 19 18 17 17 16 15 14 13 13 13 12 12 12 12 12 12 12 11 10 9 9 9 9 9 9 9 9 9 9 10 10 11 11 12 12 13 15 16 18 19 20 21 22 23 23 23 23 24 25 26 27 29 30 32 32 33 34 34 34 35 35 36 36 37 38 39 40 41 41 42 42 42 43 43 43 44 45 46 46 46 47 48 49
20 19 18 18 17 16 15 14 13 12 12 12 12 12 12 12 12 11 10 9 9 9 9 9 9 9 8 7 7 6 6 7 7 8 8 9 10 11 12 13 14 16 17 18 19 20 20 21 21 22 24 25 26 27 28 29 29 30 31 32 33 33 34 34 35 36 37 38 39 39 39 39 40 40 41 41 42 43 44 44 45 46 47 48 49
20 19 18 17 16 15 14 13 12 12 12 12 11 11 11 11 11 10 9 9 9 9 9 9 9 8 6 5 4 4 4 4 5 5 6 7 8 9 9 10 11 12 13 15 16 17 18 18 19 21 22 23 24 24 25 26 28 29 30 31 31 32 33 34 35 36 36 37 37 37 37 37 38 39 40 41 42 43 43 44 45 46 47 48 50
19 19 18 17 16 14 13 12 12 11 11 11 10 10 10 10 10 9 10 10 10 10 10 9 8 6 5 4 3 2 2 3 3 3 4 5 6 7 7 8 9 10 11 12 14 15 16 17 18 19 20 20 21 22 24 26 27 28 29 30 31 31 32 33 34 34 35 35 35 35 36 37 38 39 40 40 41 42 43 44 45 46 48 49 50
19 18 17 16 15 14 13 12 12 11 10 9 10 10 10 10 10 10 11 10 10 9 9 8 7 5 4 3 2 2 1 1 2 2 3 3 4 5 6 7 8 9 10 11 13 14 15 16 17 18 18 19 21 22 24 25 26 27 28 29 29 30 31 31 32 32 33 34 34 35 36 36 37 37 38 39 40 42 43 45 46 47 48 49 49
19 18 17 16 15 15 13 13 12 11 10 10 10 10 10 10 10 11 11 10 9 9 8 7 6 4 3 3 2 2 1 1 1 1 2 3 3 4 5 5 6 8 9 10 11 13 14 15 16 16 18 19 20 21 22 23 24 25 26 26 27 28 29 30 31 32 33 33 33 34 34 35 36 37 38 40 41 43 44 45 46 47 47 47 48
18 18 17 16 15 14 13 12 12 11 10 11 11 10 10 10 10 10 9 9 9 9 8 7 5 3 3 2 3 3 3 3 3 3 3 3 3 3 4 5 5 6 7 8 10 11 12 13 14 15 16 17 18 19 20 21 21 22 23 25 26 27 28 29 30 30 31 31 31 32 33 34 36 37 39 41 42 43 44 44 45 45 45 46 46
18 17 16 15 15 13 12 12 12 11 11 12 11 10 10 9 8 8 8 8 9 9 8 6 4 2 2 2 3 3 3 4 4 4 3 3 3 4 3 4 4 5 6 7 8 9 10 11 12 13 14 15 16 17 18 19 20 22 23 24 25 26 27 27 27 28 29 30 31 32 34 35 37 38 40 41 41 42 42 42 43 44 44 45 46
18 17 16 15 14 13 12 13 12 12 12 12 11 10 9 9 8 8 8 8 8 9 8 6 4 3 3 4 4 4 4 5 5 5 5 4 4 3 3 2 2 3 3 4 5 7 8 10 11 12 13 15 16 18 19 20 21 21 22 23 24 24 25 25 26 27 29 30 31 33 34 36 37 38 38 39 40 40 41 41 42 43 44 45 45
17 16 16 15 14 12 13 13 13 13 13 13 12 11 11 11 10 9 8 8 8 8 7 6 5 4 5 5 5 5 5 6 6 6 6 5 4 3 2 1 1 1 2 3 5 6 8 10 11 13 14 15 17 17 18 19 19 20 21 22 23 23 24 25 26 27 29 30 31 32 33 34 35 36 37 38 39 40 40 41 42 43 44 44 44
17 16 16 15 13 12 13 14 14 13 13 13 13 13 12 12 12 11 10 9 9 8 8 7 6 5 5 5 6 6 6 6 6 6 6 5 4 3 3 3 3 4 4 5 6 7 9 10 11 12 14 14 15 16 17 18 19 20 21 21 22 23 24 24 25 26 28 29 30 31 32 33 34 35 36 37 38 39 41 41 42 43 43 43 44
17 16 15 14 13 13 13 14 14 13 13 13 13 13 13 13 13 12 11 10 10 9 8 7 7 6 6 5 5 5 5 5 5 5 5 5 4 3 3 3 4 5 5 6 7 8 9 10 11 12 13 14 15 16 17 18 18 19 19 20 20 21 22 23 24 26 27 28 29 31 32 33 34 35 37 38 39 40 40 41 42 42 42 43 43
16 15 15 15 14 13 13 14 14 13 12 12 12 13 13 13 13 12 12 11 10 9 8 8 7 7 6 6 5 5 4 4 4 4 4 4 3 3 2 3 3 4 5 6 8 9 9 10 11 12 13 14 15 15 16 16 17 17 18 18 19 20 21 22 24 25 27 28 29 31 32 33 34 36 37 38 39 39 40 41 41 42 42 43 43
15 15 15 15 14 14 13 13 13 13 12 12 12 12 12 12 12 11 11 10 10 9 9 8 8 7 7 6 6 5 5 4 4 3 2 2 2 2 2 3 3 4 5 6 7 8 8 9 10 11 12 13 13 14 14 15 15 16 17 18 19 20 21 22 24 25 27 28 30 31 33 34 35 36 37 38 39 39 40 41 41 42 42 43 43
16 15 15 15 15 14 12 12 12 13 12 12 11 11 11 11 11 11 10 10 10 10 9 9 9 8 8 7 7 7 6 6 5 4 3 2 1 1 1 2 2 3 4 5 5 6 7 8 9 9 10 11 11 12 13 13 14 15 16 17 19 20 21 23 24 26 28 29 31 32 33 35 36 37 37 38 39 39 40 41 41 42 42 42 42
16 15 15 15 15 14 12 11 11 12 12 12 10 10 10 10 10 10 10 10 10 10 10 10 10 10 9 9 8 8 7 7 6 5 5 3 2 2 2 2 1 1 2 3 4 5 6 7 7 8 9 9 10 11 12 13 14 15 17 18 19 21 23 24 26 28 29 30 32 33 34 35 36 37 37 38 39 39 40 40 41 41 41 42 41
16 15 15 15 14 13 12 11 11 11 11 11 10 9 9 10 9 9 9 10 10 10 10 10 11 10 10 9 9 9 9 8 7 7 6 5 4 3 3 2 2 1 1 2 3 4 5 6 6 7 8 9 10 11 12 14 15 16 18 19 21 23 25 26 28 29 30 31 32 33 34 35 36 36 37 37 38 39 39 40 40 40 41 41 40
16 15 15 14 14 13 12 11 11 10 10 10 9 9 9 10 10 10 11 11 11 11 11 11 11 11 10 10 10 10 9 9 8 7 6 5 4 3 3 2 1 0 1 2 3 4 5 6 7 7 8 10 11 12 14 15 17 18 20 22 23 25 26 27 28 29 30 31 32 33 34 34 35 36 36 37 38 38 39 39 39 39 39 39 39
16 15 14 14 13 13 12 11 10 10 10 10 9 9 10 10 11 11 12 13 12 12 13 13 12 12 11 11 11 10 9 8 7 6 6 5 4 3 2 2 1 1 2 3 4 5 6 7 8 9 10 11 13 14 16 17 19 20 22 23 24 25 26 27 28 29 30 31 31 32 33 33 34 35 36 37 37 38 38 38 38 38 38 38 38
16 15 14 13 13 12 12 11 10 9 9 9 9 9 10 11 11 12 13 13 13 13 13 13 13 12 11 11 10 10 9 8 7 6 5 5 4 3 3 3 3 3 3 4 5 6 7 8 9 10 12 13 15 16 17 19 20 21 23 23 24 25 26 27 28 29 30 30 31 32 32 33 34 35 35 36 37 37 37 37 37 37 38 37 37
16 15 14 13 13 12 12 11 10 9 9 9 9 9 11 11 12 13 13 13 13 13 13 13 13 12 11 11 10 10 9 8 7 7 6 6 5 5 5 5 5 6 6 7 8 9 9 10 11 12 13 15 16 17 18 19 20 21 22 23 24 25 26 27 28 28 29 30 30 31 31 32 33 34 35 36 36 36 37 37 37 37 37 37 36
16 15 14 13 13 12 11 11 9 9 9 9 9 10 11 12 12 13 13 13 13 13 13 13 13 12 12 11 11 10 10 9 9 8 8 8 8 8 8 8 9 9 9 10 10 11 11 12 13 13 14 15 16 17 18 19 20 21 22 23 24 25 26 27 27 28 29 29 30 31 32 33 34 34 35 36 36 36 37 37 38 38 37 36 36
17 15 14 13 12 12 12 11 10 9 8 8 9 10 11 12 12 12 12 12 12 12 12 13 13 13 12 12 12 11 11 11 10 10 10 10 10 10 10 11 11 11 11 11 12 12 12 13 13 14 15 16 17 18 19 20 21 22 22 23 24 25 26 27 27 28 28 29 30 31 32 33 34 35 35 36 36 36 37 38 38 38 37 36 35
Wind_Direction
276 275 273 272 271 270 268 267 265 263 262 261 260 260 259 258 256 254 253 251 250 250 250 251 251 251 251 250 250 250 249 249 249 249 249 249 249 249 249 250 251 252 252 252 252 251 251 251 251 251 251 250 249 249 250 250 250 250 251 250 251 251 252 253 254 254 254 254 254 255 255 256 256 256 256 256 256 257 257 258 258 258 258 258 259
278 277 276 274 273 272 271 269 267 265 263 262 261 261 260 260 259 257 255 254 252 251 250 250 250 250 250 251 250 250 250 250 249 249 249 249 249 249 249 249 250 250 251 252 252 251 251 250 250 250 250 250 250 250 250 250 250 251 251 251 250 250 250 251 252 253 254 254 254 254 255 256 257 257 257 257 257 257 258 258 259 259 259 259 259
281 280 278 277 275 274 273 271 270 268 266 264 263 262 261 261 260 259 258 257 256 255 253 252 251 250 250 250 250 250 250 249 249 249 249 249 249 249 249 249 250 250 250 251 251 251 250 250 250 249 249 250 250 250 250 250 251 251 251 251 251 250 250 250 251 252 253 254 254 255 255 257 257 258 258 258 258 258 258 259 259 260 260 260 260
283 282 280 278 277 274 273 271 270 269 267 265 264 262 261 261 261 260 260 259 258 257 256 255 254 252 251 251 250 250 250 250 250 250 249 249 249 249 249 250 250 250 250 250 250 250 250 249 249 249 249 249 249 250 250 251 251 252 252 252 252 251 250 250 250 251 252 253 254 255 256 257 258 259 259 259 259 259 259 259 259 259 260 260 260
285 283 281 279 277 275 272 270 268 267 266 265 263 262 260 259 259 259 259 259 258 257 257 256 256 255 254 253 252 252 252 252 252 252 251 251 251 250 249 250 250 250 249 249 248 248 248 248 248 248 248 248 248 249 250 250 251 251 252 252 252 252 251 251 250 251 251 253 254 255 256 257 259 259 259 259 259 259 259 259 259 259 260 260 260
287 285 283 280 278 276 274 271 268 266 265 264 263 261 260 258 258 258 258 258 258 257 256 256 256 256 255 255 255 254 253 253 253 253 253 252 252 251 251 250 250 250 249 249 248 247 247 247 248 247 247 247 248 248 249 250 250 250 251 252 252 252 252 252 251 251 251 252 253 254 255 257 258 259 259 259 259 259 259 259 259 259 259 260 260
287 284 282 281 279 277 275 273 270 268 265 264 263 262 261 260 259 258 257 257 257 257 257 257 256 256 256 256 256 256 256 256 255 254 254 253 253 253 253 252 252 251 251 250 249 248 247 247 247 247 246 246 246 247 248 249 250 250 250 251 252 252 252 252 252 251 251 251 252 254 255 256 257 258 258 259 259 258 258 258 258 259 259 259 258
287 284 281 279 278 277 275 273 271 269 268 266 264 263 262 261 261 260 259 259 259 259 258 258 258 258 258 258 258 258 259 258 258 257 256 255 255 255 255 254 254 253 252 251 250 249 248 247 246 247 246 245 245 246 247 248 250 251 251 251 251 252 252 252 252 251 251 251 251 253 254 254 255 255 255 256 256 257 258 258 258 258 258 258 258
289 285 282 280 278 275 274 272 271 271 269 268 267 266 265 265 264 262 262 261 261 261 260 260 260 260 260 260 260 260 260 260 259 259 258 258 257 257 256 256 255 254 253 252 251 250 249 248 247 246 246 245 245 245 246 247 249 250 251 251 251 252 252 251 251 251 251 251 251 251 251 251 251 251 252 253 254 255 257 258 258 258 258 257 257
292 289 286 283 280 277 274 272 271 270 270 270 270 270 270 269 267 266 266 265 263 262 261 261 262 262 262 261 260 260 260 260 260 260 259 259 258 257 256 256 255 254 253 253 252 252 251 250 249 247 246 245 246 246 247 248 249 250 250 251 251 251 251 251 251 251 251 252 251 250 249 249 250 250 251 252 253 254 255 256 257 257 257 257 257
294 293 291 287 284 281 278 275 272 270 269 269 271 272 272 271 271 270 269 267 266 265 264 264 264 263 262 261 260 259 258 258 258 258 257 257 255 255 254 254 253 253 252 252 252 252 251 250 250 249 248 247 246 246 247 248 249 249 250 251 251 251 251 251 251 252 252 252 251 249 249 250 250 251 252 253 253 254 254 254 255 255 256 257 257
294 293 292 290 288 285 282 279 276 273 271 270 270 270 271 271 271 270 269 268 268 268 268 267 265 264 263 262 261 259 256 255 255 254 254 253 252 251 251 251 251 251 250 250 250 250 250 250 249 249 248 247 246 246 246 247 248 249 250 250 250 250 250 250 251 252 252 252 252 251 251 251 251 252 252 254 254 253 253 253 254 255 256 257 258
295 293 292 291 289 287 284 282 279 278 278 277 275 273 272 271 270 270 269 269 269 269 268 266 264 263 262 262 261 260 259 258 257 256 254 252 249 248 248 249 249 249 249 249 249 249 248 248 248 247 247 245 245 245 246 246 247 248 248 249 249 250 250 250 251 252 252 252 252 252 252 252 252 252 253 254 254 254 253 253 254 255 256 257 258
295 292 290 290 288 286 284 282 282 282 283 282 280 277 275 273 273 273 273 272 271 269 268 266 264 262 261 260 260 260 260 259 259 259 257 255 252 249 247 247 247 247 247 246 247 247 247 246 246 246 245 244 244 245 245 245 245 246 246 247 247 248 249 249 249 250 251 252 252 252 252 252 253 253 253 253 253 254 254 254 255 255 256 257 258
297 293 290 288 286 285 284 284 284 285 284 282 279 277 276 275 275 275 274 272 271 270 269 268 267 265 264 263 262 261 260 258 257 255 254 253 252 250 248 247 246 245 244 243 244 245 246 246 245 245 245 244 243 243 243 243 243 244 245 246 246 247 248 248 249 249 250 251 251 251 252 252 253 253 252 253 253 254 255 255 256 255 256 257 259
299 297 294 291 289 287 286 286 286 285 283 280 279 278 277 276 276 274 272 271 271 270 270 270 270 269 268 266 264 263 260 257 254 252 250 248 247 246 246 246 246 245 243 241 241 242 243 245 245 244 244 243 242 242 242 242 243 243 244 245 246 247 247 247 247 248 249 250 250 251 251 252 252 252 252 253 254 255 255 255 255 256 257 258 259
300 299 298 296 294 291 289 287 285 284 283 283 283 282 280 278 276 274 273 273 273 273 273 273 272 271 269 266 264 262 259 256 253 251 248 245 243 241 241 242 243 244 243 241 241 240 240 241 242 242 243 242 242 242 242 242 243 243 243 244 245 245 244 245 245 246 247 248 249 250 251 251 251 251 252 253 254 254 254 254 255 256 258 258 258
303 301 300 299 295 291 288 287 286 286 287 287 286 284 281 279 276 275 275 274 275 274 274 273 271 270 268 265 263 260 258 255 251 250 247 244 241 239 237 238 240 242 242 241 241 239 238 239 239 239 240 241 241 242 242 242 243 242 242 243 243 242 243 243 244 245 247 248 249 249 250 250 250 251 251 251 252 253 254 255 256 256 256 256 257
305 302 300 297 294 291 290 289 290 290 289 287 285 282 281 280 278 277 276 275 275 274 273 271 270 268 266 264 261 259 256 253 250 248 246 243 240 238 236 237 239 240 240 241 241 240 238 237 237 237 239 239 240 241 241 241 241 241 241 241 241 241 242 243 244 246 247 248 248 248 248 249 249 249 249 250 251 253 254 255 255 255 255 256 257
305 302 299 296 295 294 295 295 294 293 289 287 284 283 282 282 281 280 278 277 276 274 273 272 271 270 268 265 262 258 255 251 249 246 244 242 240 238 237 238 239 240 240 241 240 238 236 236 236 238 239 239 239 240 241 240 240 239 239 240 241 242 242 244 246 247 248 248 247 247 247 247 247 248 248 249 250 252 254 255 255 255 256 257 257
306 303 302 302 301 301 301 300 298 296 293 291 289 289 288 287 287 286 284 281 279 278 277 276 275 274 271 268 263 258 254 250 247 245 243 241 240 239 238 238 238 239 239 239 239 237 235 235 236 238 240 239 239 240 241 241 241 240 240 241 243 245 246 247 247 248 247 247 246 245 245 246 246 247 248 249 250 252 254 254 255 256 257 257 258
309 308 309 309 308 306 305 303 302 301 300 299 298 297 296 296 295 292 288 285 283 281 280 280 278 275 271 267 263 258 253 250 248 245 243 241 240 240 239 237 237 237 237 237 237 236 234 234 235 237 238 237 237 238 241 243 243 242 243 244 246 248 248 248 247 247 246 245 244 245 245 246 247 248 249 251 252 252 253 253 255 256 257 258 259
316 316 316 314 312 309 308 308 308 307 307 306 304 302 300 299 296 292 289 286 285 282 280 278 275 272 267 263 259 256 252 249 247 245 243 242 240 239 237 236 235 234 235 235 235 234 233 232 233 235 237 236 236 238 241 243 245 245 246 247 248 248 248 247 246 244 243 243 243 244 246 247 248 250 252 253 252 252 252 254 255 256 257 258 258
323 321 319 317 314 312 312 312 311 311 310 309 307 304 301 297 292 288 285 283 282 279 276 273 270 267 263 259 256 253 250 247 245 244 242 240 239 237 235 233 232 231 231 231 231 231 231 231 233 236 237 237 237 239 241 244 246 246 247 248 248 248 248 246 244 242 241 242 243 245 246 248 250 251 252 253 252 253 254 255 256 257 258 258 258
327 323 320 317 315 313 314 314 313 311 311 310 308 304 298 292 287 284 282 280 279 277 273 269 266 264 261 257 253 249 246 243 241 240 239 237 236 234 232 230 228 228 228 228 228 229 230 231 234 236 237 237 238 240 242 244 245 245 245 246 246 246 245 243 241 241 241 242 244 245 247 249 250 251 252 254 254 255 256 256 257 258 258 258 257
328 324 321 319 317 316 317 316 314 313 313 312 309 303 297 292 289 288 286 284 281 277 273 268 265 262 260 256 252 247 243 241 238 237 236 234 233 232 230 228 227 227 228 228 228 229 231 233 235 236 237 238 240 241 243 244 244 243 243 243 242 241 241 241 242 242 243 244 245 247 248 250 251 252 253 254 255 255 256 257 257 257 257 257 257
328 327 326 324 322 322 321 319 317 317 317 315 311 306 302 299 298 296 294 290 285 278 272 268 264 262 257 254 250 246 241 238 236 234 232 231 231 231 230 229 228 227 228 229 230 231 232 234 235 236 238 240 241 242 243 243 241 240 239 239 239 240 242 243 244 245 246 246 247 249 250 250 251 252 253 254 255 255 256 257 257 257 257 258 259
331 333 332 329 328 327 326 324 324 323 320 317 314 312 310 308 304 301 296 291 286 280 274 270 266 262 256 251 247 244 239 235 233 231 229 227 229 230 231 231 230 229 230 230 231 232 233 233 234 236 237 238 238 238 238 237 237 237 238 240 242 244 245 246 246 247 247 248 248 248 249 250 251 252 253 254 255 256 256 256 257 258 259 260 260
337 337 336 334 333 332 332 332 331 328 323 320 319 318 316 313 307 302 296 293 291 290 287 283 276 268 259 249 241 237 236 234 232 230 228 225 224 226 229 231 231 231 231 232 233 233 233 233 233 233 234 234 235 235 235 237 238 240 243 245 246 246 247 247 247 247 247 247 248 249 250 251 252 253 254 255 255 256 256 256 257 258 260 261 262
341 340 339 339 338 338 338 339 335 331 328 326 324 322 319 314 308 306 304 304 305 305 302 295 287 279 269 255 241 234 233 235 234 232 229 227 224 224 227 229 230 231 231 232 233 234 234 234 234 233 234 234 236 237 239 241 242 243 245 246 247 247 247 247 247 247 248 248 249 250 251 252 253 253 254 254 254 255 256 257 258 259 260 262 263
344 343 343 343 343 343 344 342 339 338 336 332 328 326 324 319 317 319 323 322 319 314 308 302 296 290 283 269 254 244 240 236 236 235 234 233 230 230 230 230 232 232 232 233 234 234 235 236 236 236 236 237 238 240 241 242 243 244 245 246 246 246 246 246 246 247 248 248 249 250 250 251 251 251 252 252 254 255 256 258 259 260 261 262 263
346 346 347 346 347 347 347 348 348 346 341 336 334 334 334 334 335 338 337 331 324 318 314 309 305 300 295 288 280 270 255 242 237 237 239 240 240 241 241 238 236 234 233 233 234 234 235 237 238 239 240 241 241 240 240 241 242 243 244 244 244 245 245 245 245 246 246 247 247 248 248 248 248 250 251 253 255 256 258 259 260 261 262 264 264
349 349 349 349 350 352 353 353 352 350 348 346 347 347 348 349 348 345 340 333 326 324 321 317 313 310 309 310 311 302 287 270 257 252 254 257 258 257 254 248 242 239 235 233 234 235 236 239 240 241 242 241 240 240 240 240 241 241 242 243 243 243 243 243 244 244 244 244 244 245 246 248 249 251 253 255 257 258 259 260 262 262 263 264 265
352 351 351 352 354 355 356 356 355 357 0 1 360 358 357 356 353 348 342 336 333 334 331 324 319 320 327 340 356 7 9 1 340 322 314 303 294 283 273 263 256 251 246 241 239 239 239 240 241 242 241 240 240 239 239 239 239 239 240 240 240 240 240 240 240 240 241 242 244 246 249 251 252 254 256 257 258 260 261 262 263 263 264 265 266
354 354 354 355 356 357 358 359 0 5 10 9 7 5 2 358 356 352 347 345 347 348 343 334 329 335 348 10 32 46 49 42 32 22 9 350 336 324 308 293 282 272 263 254 248 244 241 240 239 239 238 238 237 237 236 236 235 234 234 234 234 234 235 236 238 240 242 245 247 249 251 253 255 256 258 259 260 261 261 262 263 264 266 267 268
357 358 358 358 358 359 1 4 7 11 14 12 11 9 7 5 4 359 355 358 3 1 355 349 349 5 29 45 57 67 71 68 61 50 41 28 16 3 346 324 307 290 276 265 255 247 243 239 236 234 232 231 230 229 228 227 227 227 228 230 231 233 235 238 240 243 246 248 250 252 254 256 257 258 259 260 261 262 263 264 265 266 267 268 269
360 1 1 360 1 3 6 8 12 15 13 12 14 17 17 15 14 12 11 14 14 11 9 12 22 42 59 69 73 81 85 84 80 74 67 59 53 41 27 4 330 299 279 267 255 244 237 231 227 224 222 221 221 221 221 222 224 226 229 231 234 237 239 242 244 247 249 251 253 254 255 256 257 258 259 261 262 263 265 266 267 268 268 269 270
3 5 4 3 5 8 10 13 16 15 13 14 19 24 24 22 22 23 25 24 22 20 21 26 40 61 77 83 85 89 93 93 92 91 86 81 81 81 78 85 138 216 230 232 230 226 222 219 218 218 219 221 222 223 224 226 228 231 234 237 239 242 245 247 249 250 252 253 253 255 256 257 259 260 262 263 265 266 267 268 268 269 270 271 272
6 6 6 6 8 11 14 17 18 15 15 19 24 27 29 30 31 32 32 30 28 28 27 29 37 51 69 82 87 92 99 101 102 105 105 105 109 119 136 159 177 191 203 213 219 221 222 223 223 225 227 228 230 231 232 234 236 238 241 243 245 247 249 250 251 252 253 255 256 257 259 260 262 263 265 266 267 268 269 270 271 272 273 274 274
7 6 7 10 11 12 16 20 21 19 21 25 28 30 33 35 36 36 36 36 35 35 35 37 40 46 55 64 73 81 92 101 105 109 113 119 125 139 159 177 190 200 210 219 224 227 229 231 232 234 236 238 240 241 242 243 245 246 247 248 249 250 251 252 254 255 257 258 260 262 263 264 266 267 268 269 270 271 272 273 274 275 276 276 276
7 6 10 14 14 13 17 22 24 24 26 31 33 34 36 37 37 37 38 39 40 42 45 47 51 54 58 62 63 64 68 79 88 98 110 122 129 147 176 200 211 217 225 232 235 237 239 241 243 245 246 248 248 249 248 248 248 248 249 250 252 253 255 256 258 260 262 263 264 266 267 268 269 270 271 272 274 275 276 277 278 278 279 279 278
7 8 13 17 17 14 17 24 26 27 29 33 36 39 40 40 39 38 38 39 42 46 48 51 55 59 61 62 64 63 60 63 67 71 80 106 132 160 201 227 234 237 239 242 243 245 246 247 248 249 248 248 248 248 247 248 250 251 253 256 257 259 260 262 264 265 267 268 269 270 271 272 273 275 276 277 278 279 280 280 281 281 280 280 279
8 10 15 20 18 16 19 25 28 29 30 32 35 40 44 44 43 41 41 42 46 47 49 50 55 58 60 62 64 65 62 62 63 61 58 60 90 141 182 212 230 239 243 244 243 243 243 242 243 244 245 246 248 249 251 254 256 259 261 262 264 266 267 268 269 270 271 272 273 274 276 277 278 279 280 281 281 282 282 282 282 282 281 281 281
10 12 18 22 19 16 20 26 29 30 30 31 33 41 47 48 46 46 48 51 55 57 59 60 62 64 66 69 72 73 72 72 73 74 74 73 81 101 121 136 155 192 217 226 231 233 236 239 243 246 249 252 254 258 260 263 264 266 268 269 270 271 272 272 273 273 274 276 277 278 280 280 281 282 282 283 283 284 283 283 283 283 283 283 283
10 14 21 23 18 15 18 26 30 30 29 30 34 43 49 51 51 52 57 62 65 68 70 72 73 74 74 76 79 80 80 80 81 82 84 85 88 92 101 110 124 153 206 229 239 244 248 252 255 257 259 263 265 267 269 271 271 272 273 273 274 274 275 275 276 277 278 279 281 281 282 283 283 284 285 285 285 285 285 285 285 285 285 285 285
11 16 21 23 18 13 15 22 28 29 29 31 37 47 53 54 55 58 63 66 69 72 74 77 79 80 82 83 84 84 85 85 86 88 89 90 92 92 96 102 111 174 257 263 268 268 268 269 270 271 273 274 276 276 276 277 276 277 276 277 277 278 278 279 280 281 282 283 283 284 284 285 286 287 287 287 286 286 286 287 287 287 287 287 287
12 17 21 21 17 12 12 18 26 29 29 33 42 52 57 58 60 65 67 69 71 74 76 77 79 80 82 83 83 83 82 82 82 82 82 81 80 78 74 66 38 338 302 292 286 284 282 281 282 283 284 283 283 282 281 281 281 281 280 281 281 282 282 283 284 284 285 286 286 287 288 289 289 289 289 288 289 289 289 290 290 291 291 290 289
15 18 19 18 15 11 10 14 22 28 30 36 48 58 62 64 68 71 72 72 72 74 75 76 76 76 77 77 77 74 72 69 67 64 61 57 51 45 37 21 1 340 320 309 301 297 294 293 291 290 289 287 286 285 284 283 283 283 283 284 284 285 286 287 287 288 289 289 290 291 291 291 291 291 291 291 292 292 293 294 294 294 293 292 291
16 18 18 15 13 10 9 12 20 27 32 40 53 63 67 70 74 75 73 72 72 73 73 73 71 69 66 65 63 59 54 50 45 39 35 30 23 17 9 358 347 336 326 318 312 307 304 301 299 297 294 292 290 289 288 287 287 286 287 288 288 289 290 291 291 291 292 293 294 294 294 294 294 294 294 295 295 296 297 297 296 296 295 294 293
15 17 16 14 11 8 9 13 21 29 36 46 60 68 71 74 77 77 75 72 70 70 69 67 64 59 55 51 47 42 36 30 24 19 14 9 3 359 353 346 340 333 326 321 317 313 310 308 305 301 298 296 294 293 292 291 292 292 292 293 293 294 294 294 294 295 296 297 297 297 297 297 297 297 297 298 299 299 300 299 299 298 297 296 295
13 14 14 11 9 8 9 13 22 32 43 55 66 71 74 78 77 75 73 71 68 66 64 60 55 50 44 39 33 28 21 15 9 4 0 356 353 350 346 341 337 332 327 324 321 318 315 312 309 305 303 301 300 299 298 298 298 298 298 298 297 297 297 297 298 299 300 300 300 300 300 300 300 300 301 302 302 302 302 301 300 300 299 298 297